Temp
24 24 23 22 24 24 26 29 27 29 28 29 29 27 26 26 26 24 23 22 22 22 22 22 22 22 22 22 22 22 22 22 23 22 22 22 22 22 22 22 22 22 22 22 22 22 22 23 23
24 23 22 23 25 25 26 29 29 29 29 28 29 28 26 24 25 23 22 22 22 22 22 22 22 22 22 22 22 22 22 22 22 22 22 22 22 22 21 22 22 22 21 21 22 22 22 22 23
23 24 23 23 25 26 27 29 30 30 30 31 29 28 27 25 25 23 23 22 22 22 22 22 22 22 22 22 22 22 22 21 22 22 21 21 21 21 21 21 22 21 21 22 22 22 22 23 23
25 24 24 25 28 29 29 30 29 31 30 29 28 27 26 26 25 24 22 23 22 22 22 22 22 22 22 22 22 22 21 21 21 21 21 21 21 21 22 21 21 22 22 22 22 23 23 23 23
24 23 25 27 30 31 31 32 31 30 29 29 29 26 25 24 24 23 22 23 22 22 22 22 22 22 22 22 22 22 21 21 21 21 21 21 21 21 22 22 22 22 22 23 23 23 24 24 24
24 24 26 28 30 31 32 33 32 30 29 28 27 26 24 24 24 23 22 22 22 22 22 22 22 22 23 22 22 22 21 21 22 22 21 22 21 22 22 23 23 23 23 24 24 24 24 24 24
25 24 28 30 31 32 33 34 30 29 29 29 28 25 24 23 24 22 22 22 22 22 22 22 22 22 22 22 22 22 22 21 21 22 22 23 22 22 23 24 24 24 24 24 25 25 25 25 25
24 25 28 33 31 32 35 33 31 30 29 29 28 25 23 24 23 22 21 21 22 22 22 22 21 21 22 22 22 22 22 22 22 23 23 23 23 23 24 25 25 24 24 25 25 25 26 25 25
24 25 28 32 33 32 33 31 31 31 29 30 29 26 25 23 22 21 20 20 21 21 22 21 22 22 22 22 21 21 22 22 22 23 23 24 24 23 24 24 25 25 25 25 25 25 25 25 25
23 25 31 34 33 32 32 31 30 29 28 26 26 25 24 23 22 21 21 20 20 20 21 21 22 22 22 21 21 22 22 22 22 23 24 23 24 23 24 25 25 26 25 25 25 26 26 25 26
27 28 33 35 34 35 34 32 31 28 27 26 25 25 24 23 23 22 21 20 20 21 20 21 21 22 21 21 22 22 22 23 22 23 23 23 23 23 24 25 26 26 25 26 25 25 26 26 26
26 32 34 35 36 35 34 34 29 29 28 28 26 25 25 24 23 22 21 21 20 20 20 20 21 21 21 22 22 22 22 22 22 22 23 23 23 24 24 25 25 25 25 26 26 26 26 26 25
28 32 35 34 35 35 35 33 31 30 29 29 27 26 25 25 24 23 22 21 20 20 21 20 21 21 22 22 22 22 22 22 23 22 23 23 24 25 25 25 25 26 26 26 26 26 26 26 25
32 33 33 33 33 33 33 32 32 30 29 28 28 27 26 26 25 23 22 21 21 21 21 20 20 21 21 22 22 22 22 22 23 23 23 24 24 25 25 25 26 25 26 26 25 25 26 26 26
33 32 33 30 32 31 32 32 31 32 30 28 28 28 27 27 26 24 23 22 22 22 22 21 21 21 21 21 22 22 23 23 23 23 23 24 24 24 25 26 26 26 25 25 25 26 26 26 26
31 28 29 30 31 30 31 30 30 31 31 29 28 28 28 27 27 26 24 23 22 22 22 21 21 21 21 21 21 22 22 22 22 23 23 24 24 24 24 25 25 25 25 25 25 25 25 25 25
28 29 28 29 31 31 31 29 30 31 30 30 30 29 28 27 27 27 25 23 22 22 22 22 21 21 21 21 21 21 22 22 22 23 23 24 24 24 25 24 24 24 24 25 25 25 24 24 24
28 28 29 29 29 30 30 29 30 30 30 30 27 28 29 28 27 27 26 24 23 22 22 22 21 21 22 22 21 21 21 22 23 23 23 24 24 23 24 24 24 24 24 25 24 24 24 24 24
29 29 28 28 29 29 28 28 28 28 29 27 25 26 27 27 26 26 26 24 23 22 22 22 21 21 21 21 21 21 21 22 22 23 23 24 24 23 24 24 24 23 24 24 23 23 23 24 24
30 28 29 29 31 29 28 27 26 27 27 28 27 27 27 25 26 25 25 23 23 22 22 22 22 21 22 21 21 20 21 21 21 22 23 23 24 23 23 23 24 23 23 23 23 23 23 23 23
29 27 29 29 30 27 26 26 27 27 27 27 29 29 27 26 26 24 24 23 23 22 22 22 22 22 21 22 21 20 21 21 21 21 22 22 23 24 23 23 23 23 23 23 23 23 23 23 24
29 31 32 31 28 26 27 25 25 26 26 27 28 27 27 25 26 25 24 23 23 22 22 22 22 22 22 22 21 20 21 20 21 21 22 22 22 23 23 24 23 23 23 23 23 23 23 23 23
30 31 32 30 28 25 26 24 25 24 24 25 27 27 27 26 26 25 24 24 23 23 23 22 22 22 21 21 21 21 21 21 22 22 22 22 23 23 23 24 24 23 23 23 22 23 23 23 23
32 29 26 24 23 25 26 25 25 23 25 26 27 27 28 25 26 25 23 25 24 23 23 22 22 21 21 21 21 21 21 21 22 22 22 22 22 23 24 24 23 23 23 23 23 22 23 23 22
29 24 24 24 24 24 23 24 25 27 27 28 27 27 28 26 25 24 23 23 22 23 22 21 22 21 21 21 21 21 21 21 22 22 22 22 23 23 24 23 23 23 23 23 23 23 22 22 22
28 25 23 26 24 25 24 25 26 28 29 28 28 27 28 27 25 25 25 24 24 23 22 22 22 21 21 21 21 21 21 21 22 23 23 23 23 24 24 24 24 23 23 23 22 22 22 23 22
26 26 27 27 27 24 23 25 27 29 28 29 28 27 27 27 26 25 24 23 25 24 23 22 22 21 21 21 21 21 21 22 22 23 23 23 23 24 24 24 23 23 23 22 22 22 22 22 22
29 29 26 25 28 28 24 24 24 28 28 29 29 28 28 27 25 25 25 24 24 24 23 23 22 22 22 22 22 22 22 22 22 22 23 23 23 23 23 23 23 22 22 22 22 22 21 22 21
30 29 25 24 22 25 24 24 25 27 28 28 28 28 28 28 26 26 26 26 25 25 23 23 23 23 23 23 23 23 22 22 22 23 23 23 23 23 23 23 22 22 22 22 21 21 21 21 21
33 30 26 26 26 22 25 26 30 27 26 28 28 28 28 29 27 27 27 26 25 24 24 23 23 23 23 23 23 23 22 22 22 23 23 23 23 23 23 22 21 21 21 21 21 20 20 20 20
Height
785 784 783 783 802 800 814 798 788 786 786 777 772 781 793 792 800 823 808 812 815 817 819 820 822 824 826 828 829 830 832 833 835 837 838 839 841 842 844 845 846 847 847 846 846 846 845 844 844
786 786 784 784 810 825 815 787 790 781 778 775 777 783 791 807 798 807 812 814 816 817 819 821 824 825 826 830 831 833 834 836 838 840 841 841 843 844 846 846 847 848 848 847 847 846 845 845 845
786 784 789 797 808 820 813 786 784 777 771 770 782 782 791 804 803 807 810 814 817 819 821 822 824 826 827 830 833 835 837 837 840 841 844 845 845 846 846 847 847 848 848 848 847 846 846 845 845
787 785 786 806 805 792 787 779 778 778 778 775 779 797 793 798 802 806 812 814 817 820 822 823 825 827 829 829 833 835 838 840 841 841 844 846 847 847 846 847 847 847 848 848 848 847 846 846 845
786 789 804 806 798 784 773 770 772 781 783 784 781 804 804 801 802 809 813 815 817 821 824 824 825 827 828 830 832 835 838 840 842 844 846 846 847 848 847 847 847 847 848 848 847 847 846 846 845
792 792 810 812 796 781 773 766 769 779 785 790 793 799 810 808 807 812 813 816 820 821 824 826 827 827 828 829 831 835 838 840 841 843 846 847 848 847 847 847 847 847 847 847 847 847 847 847 845
795 804 802 794 793 787 773 762 778 785 789 791 787 807 813 812 811 813 816 818 821 823 825 827 828 829 830 829 829 833 837 840 841 843 844 847 848 848 847 847 847 847 847 848 849 848 847 847 846
796 799 799 780 793 791 767 771 774 780 791 787 787 810 817 812 815 816 819 821 823 825 826 827 828 831 833 833 834 833 836 840 842 844 845 846 848 848 848 848 848 848 848 849 849 848 847 848 848
793 812 807 787 783 786 769 782 776 775 786 787 785 793 802 810 813 817 822 824 826 828 828 828 829 832 834 835 837 836 838 841 842 844 846 847 848 849 849 849 849 849 849 849 850 849 849 847 845
804 813 787 759 766 774 772 773 780 790 793 799 796 803 808 809 812 815 821 823 825 827 829 829 831 833 834 837 838 839 840 843 845 846 847 848 849 850 850 850 849 849 850 849 850 848 847 846 843
793 798 768 758 756 756 767 774 774 790 804 793 799 802 808 811 813 814 819 819 821 824 827 829 831 834 836 838 840 840 841 844 847 848 848 849 850 850 850 850 850 851 850 848 849 847 846 844 843
806 773 762 756 752 757 766 764 785 782 790 788 793 798 803 808 811 813 816 818 821 825 827 829 831 833 837 839 840 841 843 845 848 849 849 850 850 850 849 849 851 851 849 848 848 847 847 845 843
797 778 761 757 754 759 759 770 779 785 783 788 794 801 803 806 810 813 815 819 820 822 825 828 831 833 836 839 841 842 844 846 847 850 851 851 851 850 849 850 851 851 849 849 849 848 846 844 842
778 773 770 764 765 766 772 778 776 784 782 790 792 799 800 802 805 810 814 817 819 820 822 826 830 833 836 838 841 843 844 845 847 850 851 851 851 851 851 851 851 850 851 850 849 848 846 844 841
775 783 777 778 770 777 773 790 792 778 782 788 791 793 797 800 803 804 806 809 813 817 819 822 827 832 835 838 840 843 845 846 848 849 851 852 852 852 851 850 851 851 850 850 849 847 845 843 841
789 797 809 788 779 777 777 811 790 779 779 788 789 792 793 796 799 802 806 807 813 815 818 821 825 830 834 837 840 842 844 846 847 849 850 851 852 852 852 851 851 850 850 849 848 847 845 842 841
801 817 814 802 779 782 785 803 786 777 779 784 784 787 790 796 799 800 804 807 811 812 815 820 824 827 831 835 838 840 843 845 847 848 849 850 852 852 852 852 852 851 851 850 849 848 845 841 839
819 818 806 808 792 787 793 795 781 779 780 782 788 786 787 790 793 797 802 807 810 813 815 819 823 826 830 834 837 839 842 844 845 847 848 850 851 852 852 853 853 852 851 850 850 848 845 841 839
793 800 808 797 783 792 800 799 789 784 785 800 800 789 787 789 792 799 804 806 811 811 814 817 821 825 829 832 835 837 839 842 844 845 847 848 849 850 851 853 853 853 852 852 851 849 845 841 839
785 803 803 789 780 791 798 798 784 779 779 783 794 791 782 791 791 795 801 805 806 809 812 814 818 822 826 830 832 834 837 840 842 844 844 845 847 849 850 851 852 852 853 852 851 849 846 842 841
792 804 798 796 785 791 800 801 787 775 775 775 776 779 783 789 789 794 798 802 804 805 808 811 813 818 823 827 831 834 837 839 841 841 842 842 844 846 848 851 851 852 852 851 850 848 846 843 841
796 773 775 782 799 826 798 831 796 782 782 779 780 782 783 785 784 784 797 801 802 802 807 811 812 815 820 824 828 830 832 835 836 838 839 840 841 844 846 849 850 851 851 850 849 847 845 844 843
782 766 773 782 798 816 815 829 796 789 794 781 776 778 781 782 785 788 793 798 802 801 804 810 813 813 818 822 826 829 831 833 835 836 837 837 839 842 844 847 848 849 849 848 847 846 845 843 842
760 781 797 806 820 834 816 823 808 803 786 776 771 769 773 779 782 790 790 790 794 802 803 808 812 812 815 820 823 826 829 832 833 833 835 836 838 839 841 843 845 846 846 846 845 844 844 843 843
777 808 839 847 846 846 821 825 797 770 764 761 771 769 764 762 771 780 782 784 786 794 800 806 809 810 812 818 821 823 826 830 831 832 833 835 837 837 839 841 843 844 844 845 844 843 844 844 843
777 804 834 851 857 832 816 826 786 750 751 754 752 757 758 757 759 768 777 782 784 790 798 802 804 808 811 815 818 820 824 828 830 831 833 835 836 836 837 839 842 842 843 843 843 843 844 843 844
790 806 780 803 807 829 823 796 761 742 752 744 745 749 749 752 753 759 771 775 784 788 793 796 800 805 808 811 815 818 820 825 827 830 833 834 836 836 836 838 840 840 841 841 842 843 843 843 845
756 762 808 810 825 826 825 815 799 758 757 740 742 741 739 744 752 757 765 773 780 784 789 793 797 800 804 808 812 815 819 822 825 828 831 833 835 835 836 837 838 839 840 840 842 844 843 843 846
766 774 790 799 818 826 835 817 759 754 747 742 738 735 739 742 751 753 760 768 775 782 786 790 795 799 803 807 810 814 817 820 823 826 829 831 832 832 834 836 836 838 839 840 843 844 843 844 846
734 755 770 797 809 814 802 791 725 733 740 735 733 730 731 736 744 756 759 765 775 779 784 788 793 797 800 804 807 811 815 819 822 825 826 828 830 831 833 835 836 839 839 842 843 843 845 845 846
Wind_Speed
5 4 5 2 3 5 0 1 1 5 5 9 13 13 11 9 4 9 12 21 27 25 25 27 27 28 27 27 27 27 26 25 25 25 24 22 20 19 16 12 9 7 6 4 4 4 4 5 5
7 5 4 2 4 3 2 3 4 9 15 18 16 13 13 9 7 14 15 27 27 26 25 28 28 29 29 26 26 24 25 24 24 21 21 20 19 15 12 10 8 6 3 2 3 3 3 3 4
6 7 2 2 2 3 3 3 6 17 15 8 6 10 5 6 15 16 23 30 29 26 26 28 29 29 30 28 26 23 22 23 21 19 17 15 14 13 11 7 5 4 3 1 2 4 3 2 2
6 3 3 3 4 2 5 4 4 16 16 12 15 8 5 15 10 19 30 31 30 27 27 28 29 29 29 29 25 23 21 20 20 20 17 14 12 10 8 5 5 3 2 2 3 3 3 2 2
3 2 3 2 1 2 2 3 11 15 11 15 10 7 4 11 30 32 32 29 31 27 25 27 29 29 28 27 25 22 20 19 19 16 14 12 11 8 6 5 3 1 2 2 2 2 1 2 3
1 2 2 3 3 2 3 9 15 17 18 18 16 11 4 24 29 26 30 31 30 29 26 25 27 28 28 27 25 22 20 19 18 16 12 9 7 7 6 5 3 3 3 3 2 1 2 4 6
2 3 4 5 6 5 5 13 14 20 15 8 12 8 7 14 25 29 29 30 29 27 26 25 25 24 25 26 27 24 21 18 17 15 12 7 6 7 5 5 5 5 5 3 2 3 4 5 8
2 2 5 2 7 8 11 19 17 18 9 19 12 7 6 18 25 28 28 29 28 27 27 28 27 26 25 23 22 24 22 18 15 12 9 9 6 5 6 6 5 4 3 2 1 3 7 10 12
2 2 3 2 9 8 18 22 14 13 17 1 3 16 21 30 31 28 23 21 25 24 25 27 27 27 25 23 20 19 18 16 14 11 10 9 8 5 4 4 3 1 1 2 5 8 11 14 17
3 3 5 7 8 8 19 22 15 12 17 14 19 21 28 32 29 26 21 20 21 25 24 25 27 26 25 23 19 18 16 14 12 12 12 9 6 3 2 1 0 2 5 8 9 11 15 16 16
4 4 10 7 6 13 14 13 7 18 12 24 24 22 23 26 23 23 20 23 26 29 27 27 27 27 23 22 20 19 16 15 11 10 10 7 4 5 6 4 4 7 10 13 16 16 12 14 11
5 15 16 3 7 10 12 16 15 14 9 21 24 24 25 18 20 22 22 25 25 27 28 28 28 26 23 21 20 17 16 13 8 8 8 6 4 4 8 8 8 9 5 11 8 7 10 10 12
15 14 11 7 6 5 11 10 12 10 16 20 23 21 19 16 20 21 23 21 26 28 27 31 28 27 26 22 17 15 14 11 12 10 7 4 3 4 7 10 7 4 6 5 8 12 13 14 19
7 10 5 7 13 11 10 12 11 15 19 20 23 22 19 17 24 24 24 23 26 28 27 25 30 28 25 23 20 15 14 10 8 8 6 2 2 6 4 5 3 4 5 10 9 13 15 16 21
3 5 2 7 5 5 2 6 7 15 22 21 21 20 19 19 27 29 31 31 34 32 29 29 30 27 25 23 22 17 14 10 8 9 5 4 5 3 3 3 4 7 9 10 12 14 16 17 16
1 4 3 4 8 3 5 2 3 4 13 21 21 18 18 17 25 27 29 31 30 32 31 28 27 28 25 23 22 18 14 11 11 11 7 5 2 3 6 8 7 9 11 11 16 18 17 17 15
3 2 2 6 3 1 2 4 7 2 5 9 17 19 17 15 19 26 29 30 30 34 34 31 27 27 25 22 21 18 15 13 10 12 7 6 3 1 2 7 8 9 10 11 15 16 16 18 15
4 4 2 4 1 1 2 4 3 5 5 7 6 10 14 14 17 25 28 28 29 32 33 32 28 26 25 22 22 19 16 15 12 12 11 9 7 2 3 2 6 9 9 11 14 15 19 15 14
4 5 6 5 5 4 4 2 4 2 4 9 6 9 9 9 12 22 26 27 27 29 30 31 31 28 28 26 25 25 21 18 18 18 17 14 11 8 5 3 1 7 9 13 13 16 17 11 15
6 5 5 5 4 4 1 6 7 6 6 9 11 10 16 7 12 18 23 25 29 30 31 33 34 31 31 28 25 25 25 22 21 18 18 23 18 13 8 5 5 6 10 10 14 14 11 5 11
5 7 5 6 5 4 1 7 6 3 4 9 8 14 11 14 14 12 22 24 26 30 34 34 33 31 31 27 25 20 18 17 18 20 18 17 21 18 13 8 7 7 9 10 13 12 7 7 5
6 13 13 9 4 3 2 5 6 2 9 6 3 6 10 11 16 18 19 23 26 29 31 32 31 31 30 27 26 26 23 20 24 20 19 20 23 19 17 12 11 10 10 11 11 8 3 5 5
5 6 4 2 5 5 3 1 6 5 6 11 10 9 12 11 10 16 17 19 19 25 29 29 30 30 29 28 27 26 24 23 20 21 18 14 19 18 17 17 16 14 13 12 10 3 2 3 2
5 7 7 5 3 1 2 1 5 5 8 7 8 15 13 14 12 14 20 24 20 20 25 28 29 28 31 30 28 25 26 21 19 20 18 15 17 17 15 16 16 15 12 10 5 3 2 2 3
9 5 3 5 4 5 3 3 10 8 9 9 6 8 6 18 17 18 18 24 21 25 25 29 30 28 28 31 31 28 25 24 20 20 19 18 16 14 14 13 11 12 10 8 4 2 3 4 6
9 7 6 5 6 3 4 5 7 6 5 6 11 10 8 22 19 22 19 24 26 28 28 29 31 29 26 27 29 29 28 27 23 19 16 15 16 13 12 11 14 9 9 7 4 6 6 5 4
3 4 2 4 1 3 3 8 9 4 15 12 8 8 15 20 20 22 21 24 26 29 31 33 31 29 28 27 26 26 24 25 24 23 16 11 13 10 9 7 10 9 7 7 9 6 8 9 6
11 8 5 2 4 3 3 7 6 4 0 3 2 2 20 19 20 19 20 24 28 30 32 30 31 31 28 25 24 24 23 22 21 18 18 12 10 10 9 9 8 9 9 12 10 10 13 11 9
3 4 5 4 5 5 2 6 8 6 5 4 4 5 15 17 18 20 19 26 30 28 29 27 28 28 27 24 21 22 19 18 18 17 17 12 10 9 9 8 12 11 12 13 12 12 13 12 12
7 7 8 5 6 5 4 7 5 8 10 7 7 4 6 16 19 16 21 28 28 26 25 27 30 31 28 25 22 21 19 20 18 19 16 12 7 6 7 10 13 11 12 14 13 13 11 11 12
Wind_Direction
223 262 301 312 40 68 359 229 199 148 65 69 76 81 91 46 65 105 145 143 140 140 139 133 132 131 128 127 123 123 123 125 127 127 126 128 127 125 120 116 109 98 86 76 59 46 38 41 45
234 270 280 307 83 65 318 303 111 106 123 109 90 88 60 71 71 117 121 148 143 140 140 136 136 134 131 128 122 123 124 123 126 125 126 126 122 119 117 120 120 116 116 83 67 33 7 359 22
248 244 360 45 92 132 178 237 110 129 140 107 105 88 87 95 125 150 149 148 143 142 142 141 139 136 133 131 129 127 126 127 127 126 125 123 123 120 121 120 117 115 108 62 10 349 357 18 79
320 351 19 53 109 198 189 219 71 113 98 88 120 66 51 121 118 137 143 146 144 143 145 144 140 137 136 135 134 132 129 128 131 131 130 129 126 127 126 119 116 115 82 339 348 6 23 44 8
329 15 15 351 292 189 235 154 170 103 83 94 103 100 67 73 128 136 142 146 145 144 147 147 144 144 141 139 138 136 133 133 132 131 133 135 135 131 127 120 112 92 63 42 51 43 33 342 331
27 117 84 193 200 250 271 142 116 100 105 101 98 100 78 125 125 133 142 145 148 146 148 151 150 147 147 145 141 139 139 140 138 136 138 137 137 135 135 119 111 97 94 94 83 21 329 323 323
64 44 266 160 172 171 214 135 116 121 127 123 131 101 126 130 132 137 141 143 148 149 152 150 151 152 151 150 147 146 146 146 144 143 139 135 138 133 126 109 115 111 104 88 48 5 342 335 331
11 33 285 117 94 66 96 91 129 136 104 121 134 151 143 143 133 128 138 149 153 153 154 156 157 158 158 155 153 149 148 150 149 145 146 135 145 147 119 109 107 113 113 108 318 320 316 320 323
9 47 273 88 105 122 103 94 91 109 131 200 15 127 133 133 132 126 130 138 153 159 161 163 161 162 159 158 156 151 151 155 156 150 146 135 147 146 134 122 99 68 339 316 309 316 319 326 319
104 214 258 164 149 142 132 130 129 118 110 105 100 117 134 137 138 139 150 154 161 168 169 167 168 164 165 161 158 156 155 163 165 158 155 156 140 164 206 56 286 298 302 302 307 315 316 312 319
313 266 309 157 155 142 144 128 121 121 131 146 149 150 149 152 152 151 158 166 174 176 174 177 171 173 170 160 162 163 163 165 161 163 161 172 201 255 246 255 308 321 310 313 313 307 332 324 308
265 250 272 125 147 159 160 149 145 133 173 152 153 157 158 160 159 161 164 168 173 180 183 186 177 181 174 167 169 167 168 170 173 184 187 199 260 265 256 255 282 342 331 352 2 347 328 345 349
233 296 42 25 57 93 112 126 127 148 156 153 152 161 166 164 164 168 168 171 175 178 189 195 190 193 185 181 175 170 172 183 178 207 197 210 263 251 261 260 271 8 67 0 3 6 13 17 11
258 294 2 23 80 45 111 126 125 159 159 154 163 168 171 173 173 164 168 173 179 183 190 190 193 194 195 195 194 182 184 176 184 201 194 163 10 136 127 88 83 55 42 24 46 26 15 3 7
268 311 51 344 8 57 139 98 147 166 162 163 173 173 175 182 171 177 175 177 182 189 187 190 193 199 200 199 198 199 208 208 216 170 162 114 79 91 102 63 56 25 30 41 25 9 359 359 6
37 53 34 331 340 353 91 228 83 174 167 169 176 178 181 180 181 180 178 179 185 182 190 189 194 197 202 202 202 199 199 204 201 180 165 153 107 68 63 78 55 21 30 24 14 3 355 1 6
16 224 161 308 354 62 45 189 162 185 112 159 167 171 183 181 188 184 182 180 185 186 187 189 190 199 206 208 206 198 196 196 192 196 180 172 173 105 104 44 41 26 30 20 9 354 0 355 359
208 209 234 251 196 93 150 210 238 165 156 158 126 149 164 178 183 178 178 183 180 188 188 191 188 200 207 208 203 201 204 210 209 207 205 203 210 199 159 91 45 23 9 5 2 355 350 6 4
180 164 198 240 212 107 207 278 329 56 50 83 293 163 174 138 152 173 171 166 172 180 185 189 190 197 205 204 204 209 213 217 229 230 228 221 223 230 216 199 335 354 358 0 356 348 347 22 15
198 197 229 299 219 108 262 256 233 223 163 154 181 205 163 168 154 156 164 165 172 179 186 189 196 198 204 206 209 211 218 223 224 227 237 233 228 228 235 236 255 326 327 337 341 350 353 355 15
188 183 198 198 101 77 47 281 254 170 193 182 172 197 162 173 160 157 172 175 177 182 192 194 198 197 203 208 207 206 208 215 214 222 230 225 226 229 232 240 262 294 310 317 329 342 348 357 4
197 201 221 175 116 217 168 269 275 161 260 255 151 174 190 166 176 168 165 178 186 186 192 199 197 197 201 203 203 201 201 204 217 224 236 243 228 227 229 242 256 275 289 305 313 329 341 347 1
239 344 190 86 161 112 228 123 278 59 288 252 245 208 203 193 184 158 168 183 191 184 192 203 199 199 202 201 205 208 211 220 224 229 243 234 212 231 239 243 252 264 279 297 308 297 332 348 33
345 81 9 54 59 348 325 168 275 173 210 235 238 217 194 172 186 174 176 171 186 195 191 201 203 201 205 204 205 210 213 217 222 225 231 229 233 234 238 241 248 256 262 287 287 271 300 120 82
36 45 352 358 1 225 325 308 246 207 196 190 184 198 182 175 175 171 185 185 186 189 186 195 203 203 203 209 211 214 217 213 215 215 223 230 235 234 237 238 244 241 254 269 260 232 152 114 93
169 138 152 147 235 223 207 234 254 189 182 152 193 222 218 189 176 179 183 184 192 187 187 190 198 201 199 205 210 215 219 216 216 220 224 235 238 243 249 247 240 238 248 244 209 159 153 147 130
119 214 144 72 152 117 230 280 307 237 197 196 183 211 166 188 180 176 192 187 190 183 187 190 194 198 197 203 210 212 211 215 219 224 225 232 242 233 223 229 206 223 219 182 158 160 138 132 122
141 179 78 182 223 250 296 293 245 331 197 290 140 88 166 175 175 180 188 183 187 185 186 190 193 195 198 201 200 202 209 212 212 216 215 221 215 228 235 225 211 203 173 162 161 146 128 125 117
150 125 48 99 153 156 211 257 224 179 160 288 200 121 169 170 177 182 178 187 185 182 183 184 188 193 195 197 192 193 195 199 196 198 201 212 219 222 226 219 190 147 149 154 154 141 138 130 122
188 192 150 135 224 242 165 257 222 188 163 231 274 334 162 170 170 186 185 178 179 176 174 176 188 193 191 191 188 186 186 181 184 184 188 192 199 169 166 164 145 145 153 155 151 139 139 146 134